TimeCST,TemperatureF,Dew PointF,Humidity,Sea Level PressureIn,VisibilityMPH,Wind Direction,Wind SpeedMPH,Gust SpeedMPH,PrecipitationIn,Events,Conditions,WindDirDegrees,DateUTC
12:53 AM,33.1,27.0,78,30.37,10.0,ENE,8.1,-,N/A,,Clear,70,2013-03-08 06:53:00
1:53 AM,30.9,25.0,79,30.38,10.0,East,4.6,-,N/A,,Clear,90,2013-03-08 07:53:00
2:53 AM,30.9,26.1,82,30.38,10.0,East,5.8,-,N/A,,Clear,80,2013-03-08 08:53:00
3:53 AM,30.0,25.0,82,30.38,10.0,East,3.5,-,N/A,,Clear,80,2013-03-08 09:53:00
4:53 AM,28.9,26.1,89,30.40,9.0,Calm,Calm,-,N/A,,Clear,0,2013-03-08 10:53:00
5:53 AM,28.0,26.1,92,30.43,7.0,East,3.5,-,N/A,,Clear,80,2013-03-08 11:53:00
6:53 AM,30.0,26.1,85,30.41,7.0,ENE,5.8,-,N/A,,Clear,70,2013-03-08 12:53:00
7:53 AM,35.1,28.0,76,30.44,10.0,East,5.8,-,N/A,,Clear,100,2013-03-08 13:53:00
8:53 AM,39.2,30.2,70,30.44,10.0,ESE,9.2,-,N/A,,Clear,120,2013-03-08 14:53:00
9:53 AM,39.9,28.9,65,30.45,10.0,SE,5.8,-,N/A,,Clear,140,2013-03-08 15:53:00
10:53 AM,46.0,30.0,54,30.41,10.0,ENE,9.2,-,N/A,,Clear,70,2013-03-08 16:53:00
11:53 AM,48.9,30.9,50,30.38,10.0,ENE,8.1,-,N/A,,Clear,60,2013-03-08 17:53:00
12:53 PM,51.1,28.9,43,30.35,10.0,ESE,8.1,-,N/A,,Clear,120,2013-03-08 18:53:00
1:53 PM,54.0,28.9,38,30.32,10.0,Calm,Calm,-,N/A,,Clear,0,2013-03-08 19:53:00
2:53 PM,55.0,28.0,35,30.31,10.0,SSE,8.1,-,N/A,,Clear,150,2013-03-08 20:53:00
3:53 PM,55.0,28.9,37,30.30,10.0,ESE,5.8,-,N/A,,Clear,110,2013-03-08 21:53:00
4:53 PM,52.0,28.9,41,30.29,10.0,East,4.6,-,N/A,,Clear,100,2013-03-08 22:53:00
5:53 PM,48.0,32.0,54,30.28,10.0,East,5.8,-,N/A,,Clear,100,2013-03-08 23:53:00
6:53 PM,46.9,28.9,50,30.27,10.0,East,6.9,-,N/A,,Clear,90,2013-03-09 00:53:00
7:53 PM,48.0,30.0,50,30.26,10.0,East,6.9,-,N/A,,Clear,90,2013-03-09 01:53:00
8:53 PM,46.9,30.0,52,30.27,10.0,East,3.5,-,N/A,,Clear,90,2013-03-09 02:53:00
9:53 PM,46.9,30.9,54,30.27,10.0,East,3.5,-,N/A,,Clear,90,2013-03-09 03:53:00
10:53 PM,46.9,30.0,52,30.25,10.0,East,8.1,-,N/A,,Clear,100,2013-03-09 04:53:00
11:53 PM,46.9,30.0,52,30.22,10.0,East,6.9,-,N/A,,Clear,100,2013-03-09 05:53:00